Flag for U.S.A. Weather past 2 weeks in Pembroke Pines, Florida, U.S.A.

Now
78 °F

Clear.


Feels Like: 81 °F
Forecast: 71 / 86 °F
Wind: 8 mph from South

Location: North Perry Airport

Current Time: Mar 27, 2015 at 4:40:24 AM

Latest Report: Mar 27, 2015 at 3:53 AM


Visibility: 10 mi

Pressure: 29.93 "Hg

Humidity: 82%

Dew point: 72 °F

Location of Pembroke PinesLocation

Historic Weather in Pembroke Pines — Graph

°F

Pembroke Pines temperature yesterday

Maximum temperature yesterday: 87 °F (at 3:53 PM)
Minimum temperature yesterday: 70 °F (at 5:53 AM)
Average temperature yesterday: 79 °F

Past Weeks' High & Low Weather Summary

 TemperatureHumidityPressure
High89 °F (Mar 23, 2:53 PM)97% (Mar 25, 7:53 AM)30.22 "Hg (Mar 25, 7:53 AM)
Low65 °F (Mar 18, 5:53 AM)36% (Mar 23, 2:53 PM)29.91 "Hg (Mar 23, 4:53 PM)
Average77 °F72%30.07 "Hg
* Reported Mar 12 2:53 AM — Mar 27 2:53 AM, Pembroke Pines, Weather by CustomWeather, © 2015

Note: Actual official high and low records may vary slightly from our data, if they occured in-between our weather recording intervals... More about our weather records

Advertising

Pembroke Pines weather history for previous 24 hours

 ConditionsComfort  
Time TempWeatherWind HumidityBarometerVisibility
2:53 AM
Fri, Mar 27
78 °FPassing clouds.8 mph82%29.94 "Hg10 mi
1:53 AM78 °FPassing clouds.6 mph82%29.97 "Hg10 mi
12:53 AM78 °FClear.8 mph82%29.96 "Hg10 mi
11:53 PM
Thu, Mar 26
78 °FPassing clouds.6 mph82%29.97 "Hg10 mi
10:53 PM78 °FPassing clouds.6 mph79%29.98 "Hg10 mi
9:53 PM79 °FClear.7 mph74%29.97 "Hg10 mi
8:53 PM79 °FClear.9 mph72%29.96 "Hg10 mi
7:53 PM81 °FSunny.9 mph67%29.95 "Hg10 mi
6:53 PM82 °FSunny.13 mph65%29.93 "Hg10 mi
5:53 PM84 °FPassing clouds.20 mph61%29.93 "Hg10 mi
4:53 PM86 °FSunny.20 mph51%29.93 "Hg10 mi
3:53 PM87 °FSunny.18 mph51%29.96 "Hg10 mi
2:53 PM86 °FPassing clouds.17 mph55%29.98 "Hg10 mi
1:53 PM86 °FScattered clouds.16 mph59%30.01 "Hg10 mi
12:53 PM85 °FScattered clouds.15 mph63%30.04 "Hg10 mi
12:00 PM83 °FScattered clouds.16 mph65%30.07 "Hg10 mi
10:53 AM81 °FPartly sunny.10 mph69%30.08 "Hg10 mi
9:53 AM80 °FScattered clouds.8 mph74%30.08 "Hg10 mi
8:53 AM76 °FPassing clouds.No wind85%30.08 "Hg10 mi
7:53 AM72 °FPassing clouds.No wind91%30.06 "Hg10 mi
6:53 AM70 °FClear.No wind90%30.03 "Hg10 mi
5:53 AM70 °FClear.No wind90%30.03 "Hg10 mi
4:53 AM71 °FClear.No wind87%30.03 "Hg10 mi
Weather by CustomWeather, © 2015

See weather overviewHow to use our weather pages